ICT,Max TemperatureF,Mean TemperatureF,Min TemperatureF,Max Dew PointF,MeanDew PointF,Min DewpointF,Max Humidity, Mean Humidity, Min Humidity, Max Sea Level PressureIn, Mean Sea Level PressureIn, Min Sea Level PressureIn, Max VisibilityMiles, Mean VisibilityMiles, Min VisibilityMiles, Max Wind SpeedMPH, Mean Wind SpeedMPH, Max Gust SpeedMPH,PrecipitationIn, CloudCover, Events, WindDirDegrees
2013-1-1,89,78,68,66,61,57,78,55,35,29.92,29.86,29.80,4,3,3,7,2,,0.00,6,,339
2013-1-2,91,80,69,68,64,57,88,60,31,29.92,29.86,29.80,4,3,3,9,3,,0.00,4,,310
2013-1-3,95,82,68,68,64,50,88,64,23,29.92,29.88,29.83,5,4,2,12,3,,0.00,6,,93
2013-1-4,91,80,69,68,63,57,83,60,31,29.89,29.83,29.74,3,2,2,9,5,,0.00,5,,351
2013-1-5,93,81,69,68,63,54,83,58,26,29.86,29.80,29.74,4,3,2,12,6,,0.00,6,,328
2013-1-6,93,80,68,66,61,46,88,57,20,29.89,29.82,29.77,5,3,1,9,5,,0.00,6,,9
2013-1-7,91,80,69,68,62,55,78,56,29,29.89,29.84,29.77,3,2,1,9,2,,0.00,6,,2
2013-1-8,95,84,73,70,65,59,83,58,30,29.92,29.84,29.77,2,2,1,9,3,,0.00,3,,12
2013-1-9,95,82,68,70,66,57,88,63,30,29.89,29.82,29.77,2,2,1,8,2,,0.00,3,,350
2013-1-10,89,79,69,73,69,64,88,71,49,29.89,29.82,29.77,4,2,1,14,4,,0.00,3,,187
2013-1-11,89,81,73,73,71,70,89,72,52,29.89,29.84,29.80,4,3,1,9,2,,0.00,3,,191
2013-1-12,91,82,73,72,70,66,94,70,46,29.92,29.86,29.77,6,4,2,12,3,,0.00,3,,212
2013-1-13,87,79,71,72,69,66,88,72,49,29.89,29.84,29.80,4,4,2,12,3,,0.00,5,Rain,227
2013-1-14,91,80,68,70,65,61,94,65,38,29.89,29.85,29.80,5,4,3,9,2,,0.00,3,,295
2013-1-15,89,79,69,72,68,64,88,70,43,29.92,29.88,29.83,4,4,3,12,2,,0.00,3,,183
2013-1-16,87,80,73,73,70,66,88,73,49,29.95,29.90,29.86,4,2,2,12,3,,0.00,5,,66
2013-1-17,91,80,69,70,60,46,88,58,21,29.98,29.92,29.86,2,2,1,9,3,,0.00,6,,66
2013-1-18,89,78,68,64,55,45,69,47,22,30.18,29.94,29.86,6,3,2,14,5,,0.00,1,,51
2013-1-19,86,76,66,68,61,55,88,63,42,30.01,29.93,29.86,2,2,2,9,4,,0.00,,,77
2013-1-20,87,76,66,66,61,54,88,65,31,29.98,29.93,29.86,2,2,1,9,2,,0.00,,,344
2013-1-21,89,78,66,68,64,55,94,61,31,29.98,29.92,29.86,2,1,1,7,4,,0.00,3,,48
2013-1-22,89,79,69,73,68,64,88,71,49,29.98,29.92,29.83,1,1,1,12,2,,0.00,6,,245
2013-1-23,91,81,71,75,72,68,94,76,55,29.95,29.89,29.83,2,2,1,9,2,,0.00,6,Thunderstorm,253
2013-1-24,87,82,77,75,73,70,83,74,62,29.95,29.89,29.83,2,2,1,12,3,,0.00,6,Thunderstorm,191
2013-1-25,87,82,77,75,73,68,89,75,55,29.95,29.87,29.83,3,3,2,12,4,,0.00,6,Rain,216
2013-1-26,78,74,69,75,71,68,94,88,74,29.95,29.90,29.86,3,2,0,9,4,,0.00,6,Rain-Thunderstorm,197
2013-1-27,84,78,73,73,72,70,94,85,66,29.95,29.90,29.86,3,2,1,9,2,,0.00,6,Rain,180
2013-1-28,75,74,73,73,71,68,94,90,78,29.98,29.92,29.89,2,1,0,9,3,,0.00,6,Rain-Thunderstorm,177
2013-1-29,87,79,71,73,70,66,94,76,52,29.95,29.92,29.86,2,2,1,9,1,,0.00,6,Rain,208
2013-1-30,86,80,73,73,71,68,89,81,58,29.98,29.93,29.89,2,2,1,12,2,,0.00,6,Rain-Thunderstorm,166
2013-1-31,82,78,73,73,71,70,94,84,70,29.98,29.95,29.92,4,3,1,12,3,,0.00,6,Rain,350